• In Österreich
  • Länderverzeichnis
  • Für 7 Tage
  • Wassertemperatur
  • Satellitenkarten
  • Wetterkarte
  • News
  • Widgets
  • user-avatar
    Anmelden

    Stündliche Wetter Wiejca

    Heute, 22 Juli, Sonntag

    Zeit Temperatur Niederschläge Wind Luftdruck Luftfeuchtigkeit
    00:00 +20°C° 0 mm 1 m/S 750 mmHg 72%
    01:00 +19°C° 0 mm 2 m/S 750 mmHg 73%
    02:00 +19°C° 0 mm 1 m/S 750 mmHg 75%
    03:00 +19°C° 0 mm 1 m/S 750 mmHg 78%
    04:00 +18°C° 0 mm 1 m/S 750 mmHg 80%
    05:00 +20°C° 0 mm 1 m/S 750 mmHg 76%
    06:00 +22°C° 0 mm 1 m/S 750 mmHg 71%
    07:00 +23°C° 0 mm 1 m/S 750 mmHg 67%
    08:00 +25°C° 0 mm 1 m/S 750 mmHg 62%
    09:00 +26°C° 0 mm 1 m/S 750 mmHg 57%
    10:00 +27°C° 0 mm 2 m/S 750 mmHg 52%
    11:00 +28°C° 0 mm 2 m/S 750 mmHg 49%
    12:00 +28°C° 0 mm 2 m/S 750 mmHg 47%
    13:00 +29°C° 0 mm 2 m/S 749 mmHg 45%
    14:00 +29°C° 0 mm 2 m/S 749 mmHg 46%
    15:00 +29°C° 0 mm 2 m/S 749 mmHg 47%
    16:00 +29°C° 0 mm 3 m/S 749 mmHg 48%
    17:00 +28°C° 0 mm 3 m/S 749 mmHg 54%
    18:00 +26°C° 0 mm 2 m/S 749 mmHg 60%
    19:00 +25°C° 0 mm 2 m/S 749 mmHg 66%
    20:00 +24°C° 0 mm 3 m/S 750 mmHg 70%
    21:00 +22°C° 0 mm 3 m/S 750 mmHg 74%
    22:00 +21°C° 0 mm 3 m/S 750 mmHg 78%
    23:00 +20°C° 0 mm 3 m/S 750 mmHg 82%

    Morgen, 23 Juli, Montag

    Zeit Temperatur Niederschläge Wind Luftdruck Luftfeuchtigkeit
    00:00 +20°C° 0 mm 2 m/S 750 mmHg 85%
    01:00 +19°C° 0 mm 2 m/S 750 mmHg 89%
    02:00 +19°C° 0 mm 2 m/S 750 mmHg 90%
    03:00 +18°C° 0 mm 2 m/S 750 mmHg 91%
    04:00 +18°C° 0 mm 2 m/S 751 mmHg 92%
    05:00 +19°C° 0 mm 3 m/S 751 mmHg 87%
    06:00 +20°C° 0 mm 3 m/S 751 mmHg 81%
    07:00 +22°C° 0 mm 3 m/S 751 mmHg 75%
    08:00 +24°C° 0 mm 3 m/S 751 mmHg 69%
    09:00 +26°C° 0 mm 4 m/S 751 mmHg 63%
    10:00 +27°C° 0 mm 4 m/S 751 mmHg 57%
    11:00 +28°C° 0 mm 4 m/S 751 mmHg 54%
    12:00 +28°C° 0 mm 4 m/S 751 mmHg 52%
    13:00 +29°C° 0 mm 5 m/S 750 mmHg 50%
    14:00 +29°C° 0,1 mm 5 m/S 750 mmHg 52%
    15:00 +29°C° 0,1 mm 5 m/S 750 mmHg 53%
    16:00 +28°C° 0,1 mm 5 m/S 750 mmHg 54%
    17:00 +27°C° 0 mm 4 m/S 751 mmHg 60%
    18:00 +26°C° 0 mm 4 m/S 751 mmHg 66%
    19:00 +25°C° 0 mm 4 m/S 751 mmHg 72%
    20:00 +22°C° 0 mm 3 m/S 751 mmHg 76%
    21:00 +21°C° 0 mm 3 m/S 751 mmHg 79%
    22:00 +20°C° 0 mm 3 m/S 752 mmHg 83%
    23:00 +19°C° 0 mm 3 m/S 752 mmHg 84%

    übermorgen, 24 Juli, Dienstag

    Zeit Temperatur Niederschläge Wind Luftdruck Luftfeuchtigkeit
    00:00 +19°C° 0 mm 3 m/S 752 mmHg 86%
    01:00 +18°C° 0 mm 3 m/S 752 mmHg 88%
    02:00 +17°C° 0 mm 3 m/S 752 mmHg 89%
    03:00 +17°C° 0 mm 3 m/S 752 mmHg 90%
    04:00 +17°C° 0 mm 3 m/S 752 mmHg 90%
    05:00 +18°C° 0 mm 3 m/S 752 mmHg 84%
    06:00 +20°C° 0 mm 3 m/S 752 mmHg 78%
    07:00 +21°C° 0 mm 3 m/S 752 mmHg 72%
    08:00 +23°C° 0 mm 4 m/S 752 mmHg 66%
    09:00 +25°C° 0 mm 4 m/S 752 mmHg 61%
    10:00 +27°C° 0 mm 4 m/S 752 mmHg 55%
    11:00 +28°C° 0 mm 4 m/S 752 mmHg 53%
    12:00 +28°C° 0 mm 4 m/S 751 mmHg 51%
    13:00 +29°C° 0 mm 4 m/S 751 mmHg 50%
    14:00 +29°C° 0 mm 4 m/S 751 mmHg 51%
    15:00 +29°C° 0 mm 5 m/S 751 mmHg 52%
    16:00 +29°C° 0 mm 5 m/S 751 mmHg 53%
    17:00 +27°C° 0 mm 4 m/S 751 mmHg 58%
    18:00 +26°C° 0 mm 3 m/S 751 mmHg 64%
    19:00 +25°C° 0 mm 3 m/S 750 mmHg 70%
    20:00 +24°C° 0 mm 3 m/S 751 mmHg 74%
    21:00 +21°C° 0 mm 3 m/S 751 mmHg 78%
    22:00 +20°C° 0 mm 3 m/S 751 mmHg 82%
    23:00 +20°C° 0 mm 2 m/S 751 mmHg 85%

    25 Juli, Mittwoch

    Zeit Temperatur Niederschläge Wind Luftdruck Luftfeuchtigkeit
    00:00 +19°C° 0 mm 2 m/S 751 mmHg 88%
    01:00 +18°C° 0 mm 2 m/S 751 mmHg 91%
    02:00 +18°C° 0 mm 2 m/S 751 mmHg 92%
    03:00 +17°C° 0 mm 2 m/S 751 mmHg 93%
    04:00 +17°C° 0 mm 2 m/S 751 mmHg 93%
    05:00 +18°C° 0 mm 2 m/S 751 mmHg 88%
    06:00 +20°C° 0 mm 3 m/S 751 mmHg 83%
    07:00 +21°C° 0 mm 3 m/S 751 mmHg 78%
    08:00 +24°C° 0 mm 3 m/S 751 mmHg 73%
    09:00 +25°C° 0 mm 3 m/S 751 mmHg 68%
    10:00 +27°C° 0 mm 3 m/S 751 mmHg 63%
    11:00 +27°C° 0,1 mm 3 m/S 750 mmHg 61%
    12:00 +28°C° 0,1 mm 3 m/S 750 mmHg 58%
    13:00 +29°C° 0,1 mm 3 m/S 750 mmHg 56%
    14:00 +29°C° 0,5 mm 4 m/S 750 mmHg 57%
    15:00 +29°C° 0,5 mm 4 m/S 750 mmHg 58%
    16:00 +29°C° 0,5 mm 4 m/S 750 mmHg 59%
    17:00 +27°C° 0,4 mm 4 m/S 750 mmHg 66%
    18:00 +26°C° 0,4 mm 4 m/S 750 mmHg 72%
    19:00 +25°C° 0,4 mm 3 m/S 750 mmHg 78%
    20:00 +24°C° 0 mm 3 m/S 750 mmHg 83%
    21:00 +22°C° 0 mm 3 m/S 750 mmHg 87%
    22:00 +21°C° 0 mm 3 m/S 750 mmHg 91%
    23:00 +20°C° 0 mm 3 m/S 750 mmHg 92%

    26 Juli, Donnerstag

    Zeit Temperatur Niederschläge Wind Luftdruck Luftfeuchtigkeit
    00:00 +20°C° 0 mm 3 m/S 750 mmHg 94%
    01:00 +19°C° 0 mm 2 m/S 750 mmHg 95%
    02:00 +19°C° 0 mm 2 m/S 750 mmHg 95%
    03:00 +19°C° 0 mm 2 m/S 751 mmHg 96%
    04:00 +18°C° 0 mm 2 m/S 751 mmHg 96%
    05:00 +20°C° 0 mm 2 m/S 751 mmHg 93%
    06:00 +21°C° 0 mm 2 m/S 751 mmHg 89%
    07:00 +23°C° 0 mm 2 m/S 751 mmHg 85%
    08:00 +24°C° 0 mm 2 m/S 751 mmHg 80%
    09:00 +26°C° 0 mm 2 m/S 751 mmHg 75%
    10:00 +27°C° 0 mm 2 m/S 751 mmHg 70%
    11:00 +28°C° 0 mm 3 m/S 751 mmHg 66%
    12:00 +29°C° 0 mm 3 m/S 751 mmHg 62%
    13:00 +30°C° 0 mm 3 m/S 751 mmHg 58%
    14:00 +30°C° 0 mm 3 m/S 751 mmHg 58%
    15:00 +30°C° 0 mm 3 m/S 751 mmHg 57%
    16:00 +30°C° 0 mm 3 m/S 751 mmHg 57%
    17:00 +29°C° 0,1 mm 2 m/S 751 mmHg 62%
    18:00 +28°C° 0,1 mm 2 m/S 751 mmHg 68%
    19:00 +27°C° 0,1 mm 2 m/S 751 mmHg 74%
    20:00 +25°C° 0 mm 2 m/S 751 mmHg 79%
    21:00 +24°C° 0 mm 2 m/S 751 mmHg 84%
    22:00 +23°C° 0 mm 2 m/S 751 mmHg 89%
    23:00 +23°C° 0 mm 2 m/S 751 mmHg 90%

    27 Juli, Freitag

    Zeit Temperatur Niederschläge Wind Luftdruck Luftfeuchtigkeit
    00:00 +21°C° 0 mm 2 m/S 752 mmHg 92%
    01:00 +21°C° 0 mm 2 m/S 752 mmHg 94%
    02:00 +20°C° 0 mm 2 m/S 752 mmHg 95%
    03:00 +20°C° 0 mm 2 m/S 752 mmHg 96%
    04:00 +20°C° 0 mm 2 m/S 752 mmHg 96%
    05:00 +21°C° 0 mm 2 m/S 752 mmHg 92%
    06:00 +23°C° 0 mm 2 m/S 752 mmHg 87%
    07:00 +25°C° 0 mm 1 m/S 752 mmHg 82%
    08:00 +26°C° 0 mm 1 m/S 752 mmHg 76%
    09:00 +28°C° 0 mm 1 m/S 752 mmHg 70%
    10:00 +29°C° 0 mm 1 m/S 752 mmHg 64%
    11:00 +30°C° 0,3 mm 1 m/S 751 mmHg 61%
    12:00 +30°C° 0,3 mm 1 m/S 751 mmHg 58%
    13:00 +31°C° 0,3 mm 1 m/S 751 mmHg 55%
    14:00 +31°C° 0,6 mm 1 m/S 751 mmHg 56%
    15:00 +31°C° 0,6 mm 1 m/S 751 mmHg 56%
    16:00 +31°C° 0,6 mm 1 m/S 751 mmHg 56%
    17:00 +30°C° 0,6 mm 1 m/S 751 mmHg 62%
    18:00 +28°C° 0,6 mm 1 m/S 751 mmHg 68%
    19:00 +27°C° 0,6 mm 1 m/S 751 mmHg 74%
    20:00 +26°C° 0,4 mm 1 m/S 751 mmHg 77%
    21:00 +26°C° 0,4 mm 1 m/S 751 mmHg 79%
    22:00 +25°C° 0,4 mm 2 m/S 751 mmHg 81%
    23:00 +25°C° 0,2 mm 1 m/S 751 mmHg 83%
    Mehr zeigen